When you browse on this site, cookies collect data to enhance your experience and personalize the content and advertising you see.
Visit our Privacy Policy to learn more. By continuing to use the site, you agree to this use of cookies and data.

Hourly Weather Tucupita

Today, 10 July, Friday

Time Temperature Precipitation Wind Pressure Humidity
00:00 +25°C° 0 mm 1 mps 759 mmHg 96%
01:00 +25°C° 0 mm 1 mps 759 mmHg 97%
02:00 +25°C° 0 mm 1 mps 758 mmHg 97%
03:00 +25°C° 0 mm 1 mps 758 mmHg 98%
04:00 +25°C° 0 mm 1 mps 758 mmHg 98%
05:00 +23°C° 0 mm 0 mps 758 mmHg 98%
06:00 +26°C° 0.1 mm 1 mps 759 mmHg 94%
07:00 +27°C° 0.1 mm 1 mps 759 mmHg 90%
08:00 +28°C° 0.1 mm 1 mps 759 mmHg 86%
09:00 +29°C° 0.8 mm 2 mps 759 mmHg 81%
10:00 +30°C° 0.8 mm 2 mps 759 mmHg 76%
11:00 +31°C° 0.8 mm 3 mps 760 mmHg 71%
12:00 +31°C° 1 mm 3 mps 759 mmHg 74%
13:00 +30°C° 1 mm 3 mps 759 mmHg 78%
14:00 +30°C° 1 mm 3 mps 758 mmHg 81%
15:00 +29°C° 0.5 mm 3 mps 758 mmHg 83%
16:00 +28°C° 0.5 mm 3 mps 757 mmHg 85%
17:00 +27°C° 0.5 mm 2 mps 757 mmHg 86%
18:00 +27°C° 0 mm 2 mps 757 mmHg 89%
19:00 +26°C° 0 mm 1 mps 758 mmHg 92%
20:00 +25°C° 0 mm 1 mps 758 mmHg 95%
21:00 +25°C° 0 mm 1 mps 759 mmHg 96%
22:00 +25°C° 0 mm 1 mps 759 mmHg 96%
23:00 +25°C° 0 mm 1 mps 759 mmHg 97%

Tomorrow, 11 July, Saturday

Time Temperature Precipitation Wind Pressure Humidity
00:00 +25°C° 0.1 mm 1 mps 759 mmHg 98%
01:00 +25°C° 0.1 mm 1 mps 758 mmHg 98%
02:00 +25°C° 0.1 mm 1 mps 758 mmHg 98%
03:00 +25°C° 0.6 mm 1 mps 758 mmHg 99%
04:00 +25°C° 0.6 mm 1 mps 758 mmHg 99%
05:00 +25°C° 0.6 mm 1 mps 757 mmHg 99%
06:00 +25°C° 0.6 mm 1 mps 758 mmHg 97%
07:00 +26°C° 0.6 mm 1 mps 758 mmHg 95%
08:00 +27°C° 0.6 mm 1 mps 758 mmHg 94%
09:00 +27°C° 0.7 mm 1 mps 758 mmHg 94%
10:00 +26°C° 0.7 mm 1 mps 759 mmHg 95%
11:00 +26°C° 0.7 mm 2 mps 759 mmHg 95%
12:00 +26°C° 0.3 mm 2 mps 758 mmHg 95%
13:00 +27°C° 0.3 mm 1 mps 758 mmHg 95%
14:00 +27°C° 0.3 mm 1 mps 757 mmHg 94%
15:00 +27°C° 0.1 mm 1 mps 757 mmHg 94%
16:00 +27°C° 0.1 mm 1 mps 757 mmHg 93%
17:00 +27°C° 0.1 mm 1 mps 756 mmHg 93%
18:00 +27°C° 0.1 mm 1 mps 757 mmHg 94%
19:00 +24°C° 0.1 mm 0 mps 757 mmHg 95%
20:00 +24°C° 0.1 mm 0 mps 758 mmHg 96%
21:00 +26°C° 0.1 mm 1 mps 758 mmHg 97%
22:00 +25°C° 0.1 mm 1 mps 759 mmHg 97%
23:00 +25°C° 0.1 mm 1 mps 759 mmHg 98%

Day after tomorrow, 12 July, Sunday

Time Temperature Precipitation Wind Pressure Humidity
00:00 +25°C° 0 mm 1 mps 758 mmHg 98%
01:00 +25°C° 0 mm 1 mps 758 mmHg 98%
02:00 +25°C° 0 mm 1 mps 758 mmHg 98%
03:00 +24°C° 0 mm 1 mps 758 mmHg 99%
04:00 +22°C° 0 mm 0 mps 758 mmHg 99%
05:00 +22°C° 0 mm 0 mps 758 mmHg 99%
06:00 +25°C° 0 mm 1 mps 758 mmHg 96%
07:00 +26°C° 0 mm 1 mps 759 mmHg 93%
08:00 +27°C° 0 mm 1 mps 759 mmHg 91%
09:00 +29°C° 0.2 mm 1 mps 759 mmHg 81%
10:00 +31°C° 0.2 mm 2 mps 759 mmHg 72%
11:00 +32°C° 0.2 mm 2 mps 759 mmHg 62%
12:00 +33°C° 0.5 mm 3 mps 759 mmHg 63%
13:00 +33°C° 0.5 mm 3 mps 758 mmHg 64%
14:00 +33°C° 0.5 mm 3 mps 757 mmHg 65%
15:00 +33°C° 0.1 mm 3 mps 757 mmHg 67%
16:00 +31°C° 0.1 mm 3 mps 757 mmHg 69%
17:00 +30°C° 0.1 mm 3 mps 756 mmHg 72%
18:00 +29°C° 0 mm 2 mps 757 mmHg 79%
19:00 +28°C° 0 mm 2 mps 757 mmHg 86%
20:00 +26°C° 0 mm 1 mps 758 mmHg 94%
21:00 +26°C° 0 mm 1 mps 758 mmHg 95%
22:00 +25°C° 0 mm 1 mps 759 mmHg 97%
23:00 +25°C° 0 mm 1 mps 759 mmHg 98%

13 July, Monday

Time Temperature Precipitation Wind Pressure Humidity
00:00 +25°C° 0 mm 1 mps 759 mmHg 98%
01:00 +25°C° 0 mm 1 mps 758 mmHg 98%
02:00 +25°C° 0 mm 1 mps 758 mmHg 98%
03:00 +25°C° 0.1 mm 1 mps 758 mmHg 98%
04:00 +25°C° 0.1 mm 1 mps 758 mmHg 98%
05:00 +25°C° 0.1 mm 1 mps 758 mmHg 98%
06:00 +26°C° 0.1 mm 1 mps 759 mmHg 95%
07:00 +27°C° 0.1 mm 1 mps 759 mmHg 92%
08:00 +28°C° 0.1 mm 2 mps 759 mmHg 89%
09:00 +29°C° 0.4 mm 2 mps 759 mmHg 83%
10:00 +30°C° 0.4 mm 2 mps 759 mmHg 77%
11:00 +31°C° 0.4 mm 2 mps 759 mmHg 71%
12:00 +32°C° 0.5 mm 2 mps 759 mmHg 69%
13:00 +32°C° 0.5 mm 2 mps 758 mmHg 67%
14:00 +32°C° 0.5 mm 2 mps 758 mmHg 65%
15:00 +32°C° 0.1 mm 2 mps 757 mmHg 68%
16:00 +31°C° 0.1 mm 2 mps 757 mmHg 71%
17:00 +31°C° 0.1 mm 2 mps 757 mmHg 74%
18:00 +29°C° 0.1 mm 2 mps 757 mmHg 80%
19:00 +28°C° 0.1 mm 1 mps 758 mmHg 86%
20:00 +27°C° 0.1 mm 1 mps 758 mmHg 91%
21:00 +26°C° 0 mm 1 mps 759 mmHg 93%
22:00 +26°C° 0 mm 1 mps 759 mmHg 94%
23:00 +26°C° 0 mm 1 mps 759 mmHg 96%

14 July, Tuesday

Time Temperature Precipitation Wind Pressure Humidity
00:00 +26°C° 0 mm 1 mps 759 mmHg 97%
01:00 +25°C° 0 mm 1 mps 759 mmHg 97%
02:00 +25°C° 0 mm 1 mps 758 mmHg 98%
03:00 +25°C° 0.2 mm 1 mps 758 mmHg 98%
04:00 +25°C° 0.2 mm 1 mps 758 mmHg 98%
05:00 +25°C° 0.2 mm 1 mps 758 mmHg 98%
06:00 +26°C° 0.8 mm 1 mps 758 mmHg 96%
07:00 +27°C° 0.8 mm 1 mps 759 mmHg 94%
08:00 +28°C° 0.8 mm 1 mps 759 mmHg 92%
09:00 +28°C° 0.6 mm 2 mps 759 mmHg 87%
10:00 +29°C° 0.6 mm 2 mps 760 mmHg 82%
11:00 +30°C° 0.6 mm 2 mps 760 mmHg 77%
12:00 +30°C° 0.9 mm 2 mps 759 mmHg 79%
13:00 +30°C° 0.9 mm 2 mps 758 mmHg 80%
14:00 +30°C° 0.9 mm 2 mps 758 mmHg 81%
15:00 +30°C° 0.4 mm 2 mps 757 mmHg 82%
16:00 +29°C° 0.4 mm 2 mps 757 mmHg 83%
17:00 +29°C° 0.4 mm 2 mps 757 mmHg 84%
18:00 +28°C° 0 mm 1 mps 758 mmHg 88%
19:00 +27°C° 0 mm 1 mps 758 mmHg 93%
20:00 +26°C° 0 mm 1 mps 759 mmHg 97%
21:00 +26°C° 0 mm 1 mps 759 mmHg 97%
22:00 +26°C° 0 mm 1 mps 759 mmHg 97%
23:00 +26°C° 0 mm 1 mps 759 mmHg 96%

15 July, Wednesday

Time Temperature Precipitation Wind Pressure Humidity
00:00 +25°C° 0 mm 1 mps 759 mmHg 97%
01:00 +25°C° 0 mm 1 mps 759 mmHg 98%
02:00 +25°C° 0 mm 1 mps 758 mmHg 98%
03:00 +25°C° 0 mm 1 mps 758 mmHg 98%
04:00 +24°C° 0 mm 1 mps 758 mmHg 99%
05:00 +24°C° 0 mm 1 mps 758 mmHg 99%
06:00 +25°C° 0.1 mm 1 mps 759 mmHg 95%
07:00 +26°C° 0.1 mm 1 mps 759 mmHg 91%
08:00 +28°C° 0.1 mm 1 mps 759 mmHg 87%
09:00 +29°C° 0.5 mm 1 mps 759 mmHg 84%
10:00 +30°C° 0.5 mm 2 mps 759 mmHg 80%
11:00 +30°C° 0.5 mm 2 mps 759 mmHg 77%
12:00 +31°C° 1 mm 2 mps 759 mmHg 77%
13:00 +31°C° 1 mm 2 mps 758 mmHg 77%
14:00 +31°C° 1 mm 2 mps 757 mmHg 77%
15:00 +30°C° 0.3 mm 2 mps 757 mmHg 78%
16:00 +30°C° 0.3 mm 2 mps 757 mmHg 79%
17:00 +29°C° 0.3 mm 2 mps 756 mmHg 80%
18:00 +28°C° 0 mm 2 mps 757 mmHg 85%
19:00 +27°C° 0 mm 1 mps 757 mmHg 91%
20:00 +26°C° 0 mm 1 mps 758 mmHg 96%
21:00 +25°C° 0 mm 1 mps 758 mmHg 97%
22:00 +25°C° 0 mm 1 mps 759 mmHg 98%
23:00 +25°C° 0 mm 1 mps 759 mmHg 98%
Show more